Hourly Data Report for October 24, 2015

All times are specified in Local Standard Time (LST). Add 1 hour to adjust for Daylight Saving Time where and when it is observed.

KUGLUKTUK A
NUNAVUT

67°49'00.000" N
115°08'38.000" W
22.60 m
2300903
71938
YCO

Download Data

Hourly Data (October 2015)
Hourly Data Report for October 24, 2015
Temp Definition
°C
Dew Point Temp Definition
°C
Rel Hum Definition
%
Wind Dir Definition
10's deg

Wind Spd Definition
km/h
Visibility Definition
km
Stn Press Definition
kPa
Hmdx Definition


Wind Chill Definition


Weather Definition


TIME
00:00 Legend Double Dagger -14.4 -17.1 80 30 11 24.1 102.91   -21 Snow Grains
01:00 Legend Double Dagger -14.8 -17.5 80 29 17 24.1 102.91   -23 Snow Grains
02:00 Legend Double Dagger -14.8 -17.4 81 25 17 24.1 102.91   -23 Snow Grains
03:00 Legend Double Dagger -15.6 -17.7 84 25 19 24.1 102.87   -25 LegendNANA
04:00 Legend Double Dagger -15.7 -17.8 84 25 17 24.1 102.85   -24 LegendNANA
05:00 Legend Double Dagger -15.4 -17.5 84 26 22 24.1 102.84   -25 Mostly Cloudy
06:00 Legend Double Dagger -15.7 -17.8 84 26 21 24.1 102.81   -25 LegendNANA
07:00 Legend Double Dagger -16.4 -18.5 84 23 23 24.1 102.77   -27 LegendNANA
08:00 Legend Double Dagger -16.6 -18.3 87 24 17 19.3 102.77   -25 Mostly Cloudy
09:00 Legend Double Dagger -17.5 -19.5 85 23 20 19.3 102.76   -27 LegendNANA
10:00 Legend Double Dagger -16.9 -18.7 86 24 19 19.3 102.73   -26 LegendNANA
11:00 Legend Double Dagger -17.0 -18.8 86 23 23 19.3 102.71   -27 Mostly Cloudy
12:00 Legend Double Dagger -16.7 -18.5 86 23 22 16.1 102.68   -27 LegendNANA
13:00 Legend Double Dagger -16.9 -18.7 86 24 26 4.0 102.62   -28 Fog
14:00 Legend Double Dagger -18.0 -20.1 84 23 29 16.1 102.62   -30 Blowing Snow
15:00 Legend Double Dagger -17.4 -20.1 80 24 26 24.1 102.55   -28 Blowing Snow
16:00 Legend Double Dagger -17.4 -21.2 73 24 32 24.1 102.54   -30 Blowing Snow
17:00 Legend Double Dagger -17.9 -21.8 72 24 33 24.1 102.55   -30 Blowing Snow
18:00 Legend Double Dagger -18.4 -22.3 72 23 28 24.1 102.52   -30 LegendNANA
19:00 Legend Double Dagger -18.2 -22.3 71 23 30 24.1 102.49   -30 LegendNANA
20:00 Legend Double Dagger -19.6 -22.8 76 22 29 24.1 102.46   -32 Mainly Clear
21:00 Legend Double Dagger -19.2 -23.1 72 23 26 24.1 102.46   -31 LegendNANA
22:00 Legend Double Dagger -18.9 -23.1 70 23 25 24.1 102.45   -30 LegendNANA
23:00 Legend Double Dagger -18.6 -22.6 71 24 28 24.1 102.42   -30 Mostly Cloudy

Notes on Data Quality.

Legend

  • E = Estimated
  • M = Missing
  • NA = Not Available
  • ‡ = Partner data that is not subject to review by the National Climate Archives
Date modified: